This is the latest recevied weather packets stored in our database for station/object AE5HO. If no packets are shown the sender has not sent any weather packets the latest 10 day(s).
| Time | Temp. | Humidity | Pressure | Rain* | Wind** | Luminosity | Snow |
|---|---|---|---|---|---|---|---|
| 1787491265 | 28.89° C | 63% | 1016.2 hPa | 0 mm | - | 37 W/m² | - |
| 1787490960 | 28.89° C | 63% | 1016 hPa | 0 mm | - | 38 W/m² | - |
| 1787490656 | 28.89° C | 62% | 1016 hPa | 0 mm | - | 34 W/m² | - |
| 1787490355 | 28.89° C | 62% | 1015.7 hPa | 0 mm | - | 29 W/m² | - |
| 1787490054 | 28.89° C | 62% | 1016 hPa | 0 mm | - | 23 W/m² | - |
| 1787489749 | 28.89° C | 61% | 1015.9 hPa | 0 mm | - | 21 W/m² | - |
| 1787489445 | 28.33° C | 62% | 1015.8 hPa | 0 mm | - | 18 W/m² | - |
| 1787489140 | 28.33° C | 62% | 1015.6 hPa | 0 mm | - | 16 W/m² | - |
| 1787488836 | 28.33° C | 63% | 1015.6 hPa | 0 mm | - | 12 W/m² | - |
| 1787488532 | 28.33° C | 63% | 1015.8 hPa | 0 mm | - | 9 W/m² | - |
| 1787488228 | 28.33° C | 64% | 1015.8 hPa | 0 mm | - | 6 W/m² | - |
| 1787487925 | 28.33° C | 61% | 1015.9 hPa | 0 mm | - | 5 W/m² | - |
| 1787487621 | 28.33° C | 62% | 1015.9 hPa | 0 mm | - | 2 W/m² | - |
| 1787487317 | 28.33° C | 62% | 1015.8 hPa | 0 mm | - | 2 W/m² | - |
| 1787487014 | 27.78° C | 63% | 1015.4 hPa | 0 mm | - | 2 W/m² | - |
| 1787486713 | 27.78° C | 64% | 1015.7 hPa | 0 mm | - | 0 W/m² | - |
| 1787486413 | 27.78° C | 64% | 1015.3 hPa | 0 mm | - | 0 W/m² | - |
| 1787486108 | 27.78° C | 63% | 1015.5 hPa | 0 mm | - | 0 W/m² | - |
| 1787485803 | 27.78° C | 63% | 1015.6 hPa | 0 mm | - | 0 W/m² | - |
| 1787485500 | 28.33° C | 63% | 1015.5 hPa | 0 mm | - | 0 W/m² | - |
| 1787485194 | 28.33° C | 64% | 1015.6 hPa | 0 mm | - | 0 W/m² | - |
| 1787484890 | 28.33° C | 63% | 1015.1 hPa | 0 mm | - | 0 W/m² | - |
| 1787484587 | 28.33° C | 63% | 1015.4 hPa | 0 mm | - | 0 W/m² | - |
| 1787484282 | 28.33° C | 64% | 1015.1 hPa | 0 mm | - | 0 W/m² | - |
| 1787483978 | 28.33° C | 63% | 1015.3 hPa | 0 mm | - | 0 W/m² | - |
* Rain latest hour (hover to see other rain measurements)
** Current wind speed in m/s (hover to see current wind gust speed)